Location: Unspecified
(0.0000°N, 0.0000°E)
Time: 14:27:06
(UTC+00:00)

Altair - Pass Details

Date: 17 March 2026
Orbit: 1502 x 1682 km, 47.2° (Epoch: 18 April)

Event Time Altitude Azimuth Distance (km) Brightness Sun altitude
Rises 19:06:38 0° 240° (WSW) 4,871 11.3 -14.6°
Reaches altitude 10° 19:10:12 10° 249° (WSW) 3,859 10.7 -15.5°
Maximum altitude 19:18:45 34° 310° (NW) 2,387 8.9 -17.6°
Drops below altitude 10° 19:27:02 10° 12° (NNE) 3,723 9.4 -19.7°
Sets 19:30:28 0° 21° (NNE) 4,681 9.8 -20.5°
